Voltar ao catálogo

PSLV DEB

AtivoPO
NORAD 35536·DEBRIS·🇮🇳 India

Lançado Oct 22, 2001 de Satish Dhawan Space Centre

Loading…

Próximas Passagens (próximas 24 horas)

TLE

AtualizadoSource: Space-Track

Época: Sep 12, 2026, 09:34 UTC

1 35536U 01049QL  26255.39884031  .00000538  00000-0  30340-3 0  9991
2 35536  98.6357 303.7542 0408143 116.0688 248.3071 13.78708372158922

Acompanhe PSLV DEB em tempo real com AllMySat

Download on the App Store